timestamp,surface_pressure_avg,surface_temp_avg,battery_voltage,lat,long
2023-04-27 00:09:00+00:00,248.0814,1.8,12.97,47.84626,-54.09684
2023-04-27 00:19:00+00:00,249.3064,1.7,12.81,47.84626,-54.09684
2023-04-27 00:29:00+00:00,250.3331,1.6,12.81,47.84626,-54.09684
2023-04-27 00:39:00+00:00,253.7031,1.56,12.81,47.84626,-54.09684
2023-04-27 00:49:00+00:00,254.7497,1.4,12.81,47.84626,-54.09684
2023-04-27 00:59:00+00:00,255.0598,1.3,12.81,47.84626,-54.09684
2023-04-27 01:09:00+00:00,257.1597,1.34,12.81,47.84626,-54.09684
2023-04-27 01:19:00+00:00,261.7647,1.38,12.73,47.84626,-54.09684
2023-04-27 01:29:00+00:00,265.0064,1.4,12.73,47.84626,-54.09684
2023-04-27 01:39:00+00:00,269.4581,1.5,12.73,47.84626,-54.09684
2023-04-27 01:49:00+00:00,274.9997,1.65,12.73,47.84626,-54.09684
2023-04-27 01:59:00+00:00,282.053,1.6,12.73,47.84626,-54.09684
2023-04-27 02:09:00+00:00,285.798,1.6,12.73,47.84626,-54.09684
2023-04-27 02:19:00+00:00,289.743,1.65,12.73,47.84626,-54.09684
2023-04-27 02:29:00+00:00,295.5947,1.63,12.73,47.84626,-54.09684
2023-04-27 02:39:00+00:00,301.4564,1.6,12.73,47.84626,-54.09684
2023-04-27 02:49:00+00:00,304.303,1.5,12.73,47.84626,-54.09684
2023-04-27 02:59:00+00:00,306.4099,1.48,12.73,47.84626,-54.09684
2023-04-27 03:09:00+00:00,309.9913,1.46,12.73,47.84626,-54.09684
2023-04-27 03:19:00+00:00,312.3347,1.45,12.73,47.84626,-54.09684
2023-04-27 03:29:00+00:00,313.6146,1.42,12.73,47.84626,-54.09684
2023-04-27 03:39:00+00:00,313.7162,1.4,12.73,47.84626,-54.09684
2023-04-27 03:49:00+00:00,315.083,1.4,12.73,47.84626,-54.09684
2023-04-27 03:59:00+00:00,317.1312,1.45,12.73,47.84626,-54.09684
2023-04-27 04:09:00+00:00,317.848,1.5,12.73,47.84626,-54.09684
2023-04-27 04:19:00+00:00,317.6945,1.5,12.65,47.84626,-54.09684
2023-04-27 04:29:00+00:00,318.1496,1.5,12.65,47.84626,-54.09684
2023-04-27 04:39:00+00:00,319.3947,1.5,12.65,47.84626,-54.09684
2023-04-27 04:49:00+00:00,319.7247,1.3,12.65,47.84626,-54.09684
2023-04-27 04:59:00+00:00,319.1412,1.22,12.65,47.84626,-54.09684
2023-04-27 05:09:00+00:00,319.1462,1.37,12.65,47.84626,-54.09684
2023-04-27 05:19:00+00:00,318.548,1.37,12.65,47.84626,-54.09684
2023-04-27 05:29:00+00:00,316.6564,1.09,12.65,47.84626,-54.09684
2023-04-27 05:39:00+00:00,316.1447,1.03,12.65,47.84626,-54.09684
2023-04-27 05:49:00+00:00,316.028,1.22,12.65,47.84626,-54.09684
2023-04-27 05:59:00+00:00,313.1913,1.37,12.65,47.84626,-54.09684
2023-04-27 06:09:00+00:00,310.7679,1.01,12.65,47.84626,-54.09684
2023-04-27 06:19:00+00:00,310.2296,0.8,12.65,47.84626,-54.09684
2023-04-27 06:29:00+00:00,309.0114,0.69,12.65,47.84626,-54.09684
2023-04-27 06:39:00+00:00,303.4313,0.73,12.65,47.84626,-54.09684
2023-04-27 06:49:00+00:00,298.223,0.71,12.65,47.84626,-54.09684
2023-04-27 06:59:00+00:00,294.9197,0.7,12.65,47.84626,-54.09684
2023-04-27 07:09:00+00:00,289.5563,0.79,12.65,47.84626,-54.09684
2023-04-27 07:19:00+00:00,284.073,0.7,12.65,47.84626,-54.09684
2023-04-27 07:29:00+00:00,280.4897,0.6,12.65,47.84626,-54.09684
2023-04-27 07:39:00+00:00,276.5114,0.6,12.65,47.84626,-54.09684
2023-04-27 07:49:00+00:00,268.4647,1.2,12.65,47.84626,-54.09684
2023-04-27 07:59:00+00:00,262.3547,1.3,12.65,47.84626,-54.09684
2023-04-27 08:09:00+00:00,260.1264,1.2,12.65,47.84626,-54.09684
2023-04-27 08:19:00+00:00,255.0764,1.1,12.57,47.84626,-54.09684
2023-04-27 08:29:00+00:00,246.4148,1.1,12.57,47.84626,-54.09684
2023-04-27 08:39:00+00:00,240.8414,1.25,12.57,47.84626,-54.09684
2023-04-27 08:49:00+00:00,239.7498,1.3,12.57,47.84626,-54.09684
2023-04-27 08:59:00+00:00,235.5264,1.3,12.57,47.84626,-54.09684
2023-04-27 09:09:00+00:00,229.0064,1.3,12.57,47.84626,-54.09684
2023-04-27 09:19:00+00:00,227.4298,1.3,12.57,47.84626,-54.09684
2023-04-27 09:29:00+00:00,228.9015,1.3,12.57,47.84626,-54.09684
2023-04-27 09:39:00+00:00,227.583,1.29,12.57,47.84626,-54.09684
2023-04-27 09:49:00+00:00,225.0581,1.26,12.57,47.84626,-54.09684
2023-04-27 09:59:00+00:00,226.3698,1.27,12.57,47.84626,-54.09684
2023-04-27 10:09:00+00:00,228.0481,1.28,12.57,47.84626,-54.09684
2023-04-27 10:19:00+00:00,226.6781,1.28,12.65,47.84626,-54.09684
2023-04-27 10:29:00+00:00,225.4715,1.28,12.65,47.84626,-54.09684
2023-04-27 10:39:00+00:00,228.3731,1.28,12.65,47.84626,-54.09684
2023-04-27 10:49:00+00:00,231.4747,1.28,12.65,47.84626,-54.09684
2023-04-27 10:59:00+00:00,232.2797,1.26,12.65,47.84626,-54.09684
2023-04-27 11:09:00+00:00,233.4981,1.13,12.65,47.84626,-54.09684
2023-04-27 11:19:00+00:00,235.3631,1.0,12.81,47.84626,-54.09684
2023-04-27 11:29:00+00:00,235.1214,0.9,12.81,47.84626,-54.09684
2023-04-27 11:39:00+00:00,235.5214,0.9,12.81,47.84626,-54.09684
2023-04-27 11:49:00+00:00,237.8165,0.9,12.81,47.84626,-54.09684
2023-04-27 11:59:00+00:00,239.6147,0.87,12.81,47.84626,-54.09684
2023-04-27 12:09:00+00:00,237.9747,0.86,12.81,47.84626,-54.09684
2023-04-27 12:19:00+00:00,237.4381,0.94,13.21,47.84626,-54.09684
2023-04-27 12:29:00+00:00,238.7814,1.04,13.21,47.84626,-54.09684
2023-04-27 12:39:00+00:00,238.7831,1.09,13.21,47.84626,-54.09684
2023-04-27 12:49:00+00:00,237.5581,1.0,13.21,47.84626,-54.09684
2023-04-27 12:59:00+00:00,239.1347,0.9,13.21,47.84626,-54.09684
2023-04-27 13:09:00+00:00,242.1781,0.89,13.21,47.84626,-54.09684
2023-04-27 13:19:00+00:00,243.0431,1.05,13.6,47.84626,-54.09684
2023-04-27 13:29:00+00:00,242.4231,1.2,13.6,47.84626,-54.09684
2023-04-27 13:39:00+00:00,244.9915,1.2,13.6,47.84626,-54.09684
2023-04-27 13:49:00+00:00,251.1331,1.06,13.6,47.84626,-54.09684
2023-04-27 13:59:00+00:00,255.1347,0.75,13.6,47.84626,-54.09684
2023-04-27 14:09:00+00:00,255.8198,0.7,13.6,47.84626,-54.09684
2023-04-27 14:19:00+00:00,257.3497,0.7,14.24,47.84626,-54.09684
2023-04-27 14:29:00+00:00,264.2798,0.7,14.24,47.84626,-54.09684
2023-04-27 14:39:00+00:00,269.1747,0.71,14.24,47.84626,-54.09684
2023-04-27 14:49:00+00:00,270.7831,0.76,14.24,47.84626,-54.09684
2023-04-27 14:59:00+00:00,273.1281,0.77,14.24,47.84626,-54.09684
2023-04-27 15:09:00+00:00,279.2247,0.7,14.24,47.84626,-54.09684
2023-04-27 15:19:00+00:00,282.8081,0.7,14.0,47.84626,-54.09684
2023-04-27 15:29:00+00:00,282.3497,0.7,14.0,47.84626,-54.09684
2023-04-27 15:39:00+00:00,282.8381,0.7,14.0,47.84626,-54.09684
2023-04-27 15:49:00+00:00,286.2081,0.7,14.0,47.84626,-54.09684
2023-04-27 15:59:00+00:00,287.7447,0.7,14.0,47.84626,-54.09684
2023-04-27 16:09:00+00:00,284.2147,0.76,14.0,47.84626,-54.09684
2023-04-27 16:19:00+00:00,283.4597,0.76,14.0,47.84626,-54.09684
2023-04-27 16:29:00+00:00,287.068,0.72,14.0,47.84626,-54.09684
2023-04-27 16:39:00+00:00,286.8431,0.75,14.0,47.84626,-54.09684
2023-04-27 16:49:00+00:00,284.1896,0.8,14.0,47.84626,-54.09684
2023-04-27 16:59:00+00:00,287.8381,0.8,14.0,47.84626,-54.09684
2023-04-27 17:09:00+00:00,293.2498,0.8,14.0,47.84626,-54.09684
2023-04-27 17:19:00+00:00,292.1797,0.8,13.92,47.84626,-54.09684
2023-04-27 17:29:00+00:00,289.468,0.87,13.92,47.84626,-54.09684
2023-04-27 17:39:00+00:00,290.0081,0.8,13.92,47.84626,-54.09684
2023-04-27 17:49:00+00:00,291.1313,0.79,13.92,47.84626,-54.09684
2023-04-27 17:59:00+00:00,291.3631,0.8,13.92,47.84626,-54.09684
2023-04-27 18:09:00+00:00,291.188,0.8,13.92,47.84626,-54.09684
2023-04-27 18:19:00+00:00,290.27299999999997,0.85,13.92,47.84626,-54.09684
2023-04-27 18:29:00+00:00,289.5098,0.9,13.92,47.84626,-54.09684
2023-04-27 18:39:00+00:00,291.2914,0.9,13.92,47.84626,-54.09684
2023-04-27 18:49:00+00:00,289.1381,1.47,13.92,47.84626,-54.09684
2023-04-27 18:59:00+00:00,281.938,1.9,13.92,47.84626,-54.09684
2023-04-27 19:09:00+00:00,276.0914,1.89,13.92,47.84626,-54.09684
2023-04-27 19:19:00+00:00,274.2313,1.74,13.76,47.84626,-54.09684
2023-04-27 19:29:00+00:00,271.0264,1.7,13.76,47.84626,-54.09684
2023-04-27 19:39:00+00:00,263.433,1.8,13.76,47.84626,-54.09684
2023-04-27 19:49:00+00:00,257.4164,1.9,13.76,47.84626,-54.09684
2023-04-27 19:59:00+00:00,254.9098,1.9,13.76,47.84626,-54.09684
2023-04-27 20:09:00+00:00,252.3031,1.9,13.76,47.84626,-54.09684
2023-04-27 20:19:01+00:00,248.6081,1.9,13.6,47.84626,-54.09684
2023-04-27 20:29:01+00:00,245.5431,1.9,13.6,47.84626,-54.09684
2023-04-27 20:39:01+00:00,243.7198,1.96,13.6,47.84626,-54.09684
2023-04-27 20:49:01+00:00,240.1348,1.99,13.6,47.84626,-54.09684
2023-04-27 20:59:01+00:00,235.4647,1.9,13.6,47.84626,-54.09684
2023-04-27 21:09:01+00:00,233.3597,1.96,13.6,47.84626,-54.09684
2023-04-27 21:19:00+00:00,232.5465,2.0,13.53,47.84626,-54.09684
2023-04-27 21:29:00+00:00,230.8531,1.71,13.53,47.84626,-54.09684
2023-04-27 21:39:00+00:00,228.4331,1.3,13.53,47.84626,-54.09684
2023-04-27 21:49:00+00:00,229.0131,1.1,13.53,47.84626,-54.09684
2023-04-27 21:59:00+00:00,230.8597,0.9,13.53,47.84626,-54.09684
2023-04-27 22:09:00+00:00,230.8748,0.8,13.53,47.84626,-54.09684
2023-04-27 22:19:00+00:00,229.7296,0.8,13.29,47.84626,-54.09684
2023-04-27 22:29:00+00:00,230.1164,0.8,13.29,47.84626,-54.09684
2023-04-27 22:39:00+00:00,231.3263,0.79,13.29,47.84626,-54.09684
2023-04-27 22:49:00+00:00,232.5431,0.78,13.29,47.84626,-54.09684
2023-04-27 22:59:00+00:00,234.5131,0.76,13.29,47.84626,-54.09684
2023-04-27 23:09:00+00:00,234.213,0.76,13.29,47.84626,-54.09684
2023-04-27 23:19:01+00:00,233.4833,0.78,12.97,47.84626,-54.09684
2023-04-27 23:29:01+00:00,235.2564,0.8,12.97,47.84626,-54.09684
2023-04-27 23:39:01+00:00,239.3098,0.8,12.97,47.84626,-54.09684
2023-04-27 23:49:01+00:00,241.8431,0.8,12.97,47.84626,-54.09684
2023-04-27 23:59:01+00:00,242.9197,0.8,12.97,47.84626,-54.09684
